Home > Weather > Kazan > Past weeks

Flag for Russia Weather for the Past 2 Weeks in Kazan, Russia

Now
14 °F

Clear.


Feels Like: -1 °F
Forecast: 15 / 23 °F
Wind: 15 mph from Southeast

Location: Kazan'

Current Time: Feb 14, 2016 at 8:03:37 PM

Latest Report: Feb 14, 2016 at 7:30 PM


Visibility: 10 mi

Pressure: 30.33 "Hg

Humidity: 85%

Dew point: 10 °F

Location of KazanLocation

Historic Weather in Kazan — Graph

°F

Kazan Temperature Yesterday

Maximum temperature yesterday: 19 °F (at 1:00 PM)
Minimum temperature yesterday: 7 °F (at 3:30 AM)
Average temperature yesterday: 12 °F

High & Low Weather Summary for the Past Weeks

 TemperatureHumidityPressure
High36 °F (Jan 31, 1:30 PM)100% (Jan 30, 11:30 PM)30.57 "Hg (Jan 30, 11:30 PM)
Low5 °F (Feb 14, 12:30 AM)51% (Feb 9, 8:00 PM)29.39 "Hg (Feb 3, 9:30 PM)
Average24 °F88%30.03 "Hg
* Reported Jan 30 6:00 PM — Feb 14 6:30 PM, Kazan, Weather by CustomWeather, © 2016

Note: Actual official high and low records may vary slightly from our data, if they occured in-between our weather recording intervals... More about our weather records

Advertising

Kazan Weather History for the Previous 24 Hours

 ConditionsComfort  
Time TempWeatherWind HumidityBarometerVisibility
6:30 PM
Sun, Feb 14
12 °FClear.10 mph85%30.36 "Hg10 mi
6:00 PM12 °FPassing clouds.10 mph85%30.36 "HgN/A
5:30 PM12 °FPassing clouds.13 mph85%30.36 "HgN/A
5:00 PM14 °FPassing clouds.13 mph85%30.36 "HgN/A
4:30 PM16 °FPassing clouds.15 mph79%30.36 "HgN/A
4:00 PM16 °FPassing clouds.13 mph79%30.36 "HgN/A
3:30 PM14 °FSunny.6 mph85%30.36 "Hg10 mi
3:00 PM18 °FScattered clouds.8 mph79%30.33 "HgN/A
2:30 PM19 °FPartly sunny.6 mph79%30.33 "HgN/A
2:00 PM19 °FPartly sunny.8 mph79%30.33 "HgN/A
1:30 PM19 °FPassing clouds.10 mph86%30.33 "HgN/A
1:00 PM19 °FPassing clouds.6 mph79%30.33 "HgN/A
12:30 PM18 °FSunny.8 mph79%30.33 "Hg10 mi
12:00 PM16 °FSunny.8 mph79%30.33 "Hg10 mi
11:30 AM16 °FSunny.6 mph73%30.33 "Hg10 mi
10:30 AM12 °FSunny.6 mph79%30.33 "Hg10 mi
10:00 AM14 °FSunny.6 mph79%30.33 "Hg10 mi
9:30 AM12 °FSunny.6 mph79%30.33 "Hg10 mi
9:00 AM12 °FSunny.8 mph79%30.33 "Hg10 mi
8:30 AM10 °FSunny.8 mph85%30.33 "Hg10 mi
8:00 AM10 °FClear.6 mph85%30.33 "Hg10 mi
7:30 AM9 °FClear.8 mph92%30.33 "Hg10 mi
7:00 AM5 °FClear.1 mph92%30.33 "Hg10 mi
6:30 AM10 °FClear.8 mph79%30.33 "Hg10 mi
6:00 AM10 °FClear.6 mph85%30.30 "Hg10 mi
5:30 AM9 °FPassing clouds.3 mph92%30.33 "HgN/A
5:00 AM12 °FClear.8 mph85%30.30 "Hg10 mi
4:30 AM9 °FClear.3 mph85%30.33 "Hg10 mi
4:00 AM10 °FPassing clouds.3 mph85%30.30 "HgN/A
3:30 AM10 °FClear.6 mph85%30.30 "Hg10 mi
3:00 AM9 °FClear.3 mph85%30.33 "Hg10 mi
2:30 AM5 °FClear.3 mph85%30.33 "Hg10 mi
2:00 AM10 °FPassing clouds.6 mph85%30.33 "HgN/A
1:30 AM10 °FClear.10 mph85%30.33 "Hg10 mi
12:30 AM5 °FClear.6 mph92%30.33 "Hg10 mi
12:00 AM10 °FClear.6 mph92%30.36 "Hg10 mi
11:30 PM
Sat, Feb 13
10 °FClear.1 mph85%30.36 "Hg10 mi
11:00 PM9 °FClear.1 mph92%30.36 "Hg10 mi
10:30 PM9 °FClear.No wind85%30.36 "Hg10 mi
10:00 PM9 °FClear.1 mph85%30.36 "Hg10 mi
9:30 PM14 °FClear.3 mph79%30.36 "Hg10 mi
9:00 PM14 °FClear.1 mph73%30.36 "Hg10 mi
8:30 PM14 °FClear.1 mph73%30.36 "Hg10 mi
8:00 PM14 °FClear.6 mph79%30.39 "Hg10 mi
Weather by CustomWeather, © 2016

See weather overviewHow to use our weather pages